カタログに戻る

COSMOS 1410 DEB

運用中PO
NORAD 44696·DEBRIS·🇷🇺 Russia

打ち上げ Sep 24, 1982 から Plesetsk Cosmodrome

Loading…

次のパス (今後24時間)

TLE

経年Source: Space-Track

元期: Sep 3, 2026, 05:47 UTC

1 44696U 82096C   26246.24109056  .00000021  00000-0  77463-4 0  9995
2 44696  82.6049  62.7443 0004972 127.5956 232.5576 12.42653940537161

AllMySatでCOSMOS 1410 DEBをリアルタイム追跡

Download on the App Store